Printer-friendly version

IAU Minor Planet Center

Minor Planet Center

MPEC 1999-L40: 1999 LV7

The following Minor Planet Electronic Circular may be linked-to from your own Web pages, but must not otherwise be redistributed electronically.


Read MPEC 1999-L39 Read MPEC 1999-L41


M.P.E.C. 1999-L40                                Issued 1999 June 15, 16:49 UT

     The Minor Planet Electronic Circulars contain information on unusual
         minor planets and routine data on comets.  They are published
   on behalf of Commission 20 of the International Astronomical Union by the
          Minor Planet Center, Smithsonian Astrophysical Observatory,
                          Cambridge, MA 02138, U.S.A.

             BMARSDEN@CFA.HARVARD.EDU or GWILLIAMS@CFA.HARVARD.EDU
          URL http://cfa-www.harvard.edu/iau/mpc.html  ISSN 1523-6714

                                   1999 LV7

Observations:
     J99L07V* C1999 06 11.17739 15 14 09.76 +25 40 20.8          18.8        704
     J99L07V  C1999 06 11.19024 15 14 08.65 +25 38 43.6          19.1        704
     J99L07V  C1999 06 11.20317 15 14 07.54 +25 37 04.8          18.8        704
     J99L07V  C1999 06 11.21607 15 14 06.44 +25 35 26.4          18.7        704
     J99L07V  C1999 06 11.22892 15 14 05.27 +25 33 48.4          19.1        704
     J99L07V  C1999 06 12.22823 15 12 55.94 +23 24 14.6          18.4        704
     J99L07V  C1999 06 12.24053 15 12 54.93 +23 22 37.1          19.0        704
     J99L07V  C1999 06 12.25280 15 12 53.93 +23 20 59.0          19.2        704
     J99L07V  C1999 06 12.26510 15 12 52.97 +23 19 20.9          19.0        704
     J99L07V  C1999 06 12.27738 15 12 51.97 +23 17 43.4          18.9        704
     J99L07V  C1999 06 13.00646 15 12 03.04 +21 39 42.7          17.3 R      046
     J99L07V  C1999 06 13.00734 15 12 03.07 +21 39 35.4                      046
     J99L07V  C1999 06 13.00804 15 12 02.98 +21 39 29.4                      046
     J99L07V  C1999 06 13.00950 15 12 02.87 +21 39 16.9                      046
     J99L07V  C1999 06 14.16756 15 10 51.37 +18 58 57.6          18.4        704
     J99L07V  C1999 06 14.17987 15 10 50.27 +18 57 12.9          20.0        704
     J99L07V  C1999 06 14.19219 15 10 49.51 +18 55 28.8          18.5        704
     J99L07V  C1999 06 14.20452 15 10 48.57 +18 53 44.3          18.7        704
     J99L07V  C1999 06 14.21695 15 10 47.65 +18 51 58.7          18.8        704
     J99L07V  C1999 06 14.22886 15 10 46.73 +18 50 17.5          18.6        704
     J99L07V  C1999 06 14.24123 15 10 45.83 +18 48 32.3          18.7        704
     J99L07V  C1999 06 14.25360 15 10 44.91 +18 46 46.8          18.5        704
     J99L07V  C1999 06 14.26604 15 10 43.97 +18 45 01.0          18.8        704
     J99L07V  C1999 06 14.27841 15 10 43.08 +18 43 15.1          18.9        704
     J99L07V  C1999 06 14.52652 15 10 29.04 +18 08 37.0          17.3 R      426
     J99L07V  C1999 06 14.52817 15 10 28.88 +18 08 22.7          17.5 R      426
     J99L07V  C1999 06 14.53028 15 10 28.74 +18 08 05.0          17.7 R      426
     J99L07V  C1999 06 14.53170 15 10 28.66 +18 07 53.1          17.5 R      426
     J99L07V  C1999 06 15.22141 15 09 48.22 +16 27 47.5          18.4 V      670
     J99L07V  C1999 06 15.22696 15 09 47.95 +16 26 56.4                      670
     J99L07V  C1999 06 15.23251 15 09 47.50 +16 26 10.2                      670
     J99L07V  C1999 06 15.48227 15 09 33.83 +15 50 18.4          18.2 V      426
     J99L07V  C1999 06 15.48395 15 09 33.72 +15 50 04.0          18.3 V      426
     J99L07V  C1999 06 15.48600 15 09 33.56 +15 49 45.6          18.4 V      426

Observer details:
046 Klet.  Observers J. Ticha, M. Tichy.  Measurer M. Tichy.  0.57-m f/5.2
    reflector + CCD.
426 Woomera.  Observer F. B. Zoltowski.  0.30-m f/3.3 Schmidt-Cassegrain + CCD.
670 Camarillo.  Observer J. E. Rogers.  0.25-m Schmidt-Cassegrain + CCD.
704 Lincoln Laboratory ETS, New Mexico.  Observers M. Blythe, F. Shelly,
    M. Bezpalko, M. Elowitz.  Measurers J. Stuart, H. Viggh, R. Sayer.  1.0-m
    f/2.15 reflector + CCD.

Orbital elements:
1999 LV7
Epoch 1999 June 11.0 TT = JDT 2451340.5                 Williams
M   1.64070              (2000.0)            P               Q
n   0.29712889     Peri.  158.49394     -0.35489426     +0.78536746
a   2.2241946      Node    87.57735     -0.91462150     -0.17926248
e   0.4753864      Incl.   30.50742     -0.19369451     -0.59250563
P   3.32           H   19.2           G   0.15
From 34 observations 1999 June 11-15.

Ephemeris:
1999 LV7                 a,e,i = 2.22, 0.48, 31                  q = 1.1668
Date    TT    R. A. (2000) Decl.     Delta      r     Elong.  Phase     V
1999 06 11    15 14.37   +26 02.9    0.248    1.168   122.9    46.9    18.3
1999 06 16    15 09.07   +14 33.6    0.232    1.173   127.8    43.2    18.0
1999 06 21    15 05.32   +01 40.3    0.228    1.179   131.4    40.3    17.9
1999 06 26    15 03.30   -11 16.2    0.236    1.188   132.4    39.2    18.0
1999 07 01    15 03.13   -22 55.8    0.256    1.200   130.8    39.9    18.2
1999 07 06    15 04.91   -32 37.4    0.286    1.213   127.9    41.4    18.5
1999 07 11    15 08.76   -40 19.7    0.323    1.229   124.7    42.9    18.9
1999 07 16    15 14.78   -46 20.9    0.365    1.247   121.6    44.0    19.2
1999 07 21    15 23.03   -51 02.6    0.410    1.266   118.9    44.6    19.5
1999 07 26    15 33.49   -54 43.0    0.459    1.288   116.5    44.9    19.8
1999 07 31    15 46.12   -57 35.8    0.509    1.310   114.4    44.9    20.0
1999 08 05    16 00.80   -59 50.5    0.561    1.334   112.6    44.6    20.3
1999 08 10    16 17.42   -61 34.0    0.614    1.360   110.9    44.2    20.5
1999 08 15    16 35.77   -62 51.2    0.668    1.386   109.4    43.6    20.7
1999 08 20    16 55.55   -63 45.6    0.722    1.413   108.0    42.9    20.9
1999 08 25    17 16.37   -64 19.8    0.778    1.441   106.7    42.2    21.1
1999 08 30    17 37.81   -64 35.8    0.834    1.470   105.4    41.5    21.3
1999 09 04    17 59.48   -64 35.1    0.891    1.499   104.1    40.7    21.4
1999 09 09    18 21.01   -64 19.3    0.948    1.529   102.8    40.0    21.6
1999 09 14    18 42.11   -63 50.1    1.007    1.559   101.6    39.2    21.7
1999 09 19    19 02.53   -63 09.0    1.066    1.590   100.3    38.4    21.9
1999 09 24    19 22.11   -62 17.6    1.126    1.621    99.0    37.7    22.0
1999 09 29    19 40.74   -61 17.2    1.187    1.652    97.6    37.0    22.2

Gareth V. Williams           (C) Copyright 1999 MPC           M.P.E.C. 1999-L40

Read MPEC 1999-L39 Read MPEC 1999-L41


Our Web policy. Index to the CBAT/MPC/ICQ pages.


Valid HTML 4.01!